User: anonymous   Login
Location: Betra
(48.4113°N, 8.6634°E)
Time: 20:45:42
(UTC+00:00)
Language:

Cosmos 2221 Rocket - Orbit

View from above orbital plane
View from above orbital plane
View from above satellite
View from above satellite

Ground track
Ground track

The orbit data is extracted from the following two-line orbital elements,

1 22237U 92080B   24198.54687385  .00000596  00000-0  76673-4 0  9998
2 22237  82.5098 230.9285 0019983  29.4661 330.7673 14.79386858705603
Epoch (UTC): 16 July 2024 13:07:29
Eccentricity: 0.0019983
inclination: 82.5098°
perigee height: 617 km
apogee height: 645 km
right ascension of ascending node: 230.9285°
argument of perigee: 29.4661°
revolutions per day: 14.79386858
mean anomaly at epoch: 330.7673°
orbit number at epoch: 70560

The dashed part of the orbit path shows where the satellite is in the earth's shadow,  

DLR